Regional Weather Roundup
Issued by NWS

Home | Current Version | Previous Version | Text Only | Print | Product List | Glossary On
Versions: 1 2 3 4 5 6 7 8 9 10 11 12 13 14 15 16 17 18 19 20 21 22 23 24 25 26 27 28 29 30 31 32 33 34 35 36 37 38 39 40 41 42 43 44 45 46 47 48 49 50
000
ASUS46 KPQR 200010
RWROR

OREGON REGIONAL WEATHER ROUNDUP
NATIONAL WEATHER SERVICE PORTLAND OR
500 PM PDT SUN APR 19 2015

NOTE: "FAIR" INDICATES FEW OR NO CLOUDS BELOW 12,000 FEET WITH
NO SIGNIFICANT WEATHER AND/OR OBSTRUCTIONS TO VISIBILITY.

ORZ001>013-200100-
NORTHWEST OREGON


CITY           SKY/WX    TMP DP  RH WIND       PRES   REMARKS
ASTORIA        SUNNY     61  49  64 NW18      30.03F
6HR MIN TEMP:  60; 6HR MAX TEMP:  67;

NEWPORT        SUNNY     57  50  77 N22G28    30.03F
PORTLAND       MOSUNNY   76  45  33 NW9       29.97F
6HR MIN TEMP:  61; 6HR MAX TEMP:  77;

VANCOUVER WA   SUNNY     76  37  24 NW8       29.96F
6HR MIN TEMP:  61; 6HR MAX TEMP:  77;

SCAPPOOSE      SUNNY     76  39  26 N10       29.96F
6HR MIN TEMP:  63; 6HR MAX TEMP:  77;

HILLSBORO      SUNNY     77  46  33 E5        29.96F
6HR MIN TEMP:  62; 6HR MAX TEMP:  77;

AURORA         SUNNY     77  39  25 N6        29.97F
6HR MIN TEMP:  62; 6HR MAX TEMP:  77;

MCMINNVILLE    SUNNY     79  42  26 VRB3      29.97F
6HR MIN TEMP:  61; 6HR MAX TEMP:  79;

SALEM          SUNNY     76  46  34 VRB6      29.96F
6HR MIN TEMP:  61; 6HR MAX TEMP:  76;

CORVALLIS      SUNNY     79  46  31 E10       29.98F
EUGENE         PTSUNNY   72  53  51 N8        29.97F
6HR MIN TEMP:  59; 6HR MAX TEMP:  73;

$$

ORZ021-028-200100-
SOUTHWEST OREGON


CITY           SKY/WX    TMP DP  RH WIND       PRES   REMARKS
NORTH BEND     SUNNY     61  48  63 N21       29.96F
BROOKINGS      SUNNY     59  53  80 SE8       29.90S HAZE
ROSEBURG       SUNNY     79  37  22 N13       29.93F
6HR MIN TEMP:  61; 6HR MAX TEMP:  81;

SEXTON SUMMIT  SUNNY     69  36  29 CALM      30.01F
6HR MIN TEMP:  65; 6HR MAX TEMP:  72; 6HR PCP: TRACE;

MEDFORD        SUNNY     85  28  12 N6        29.88F
6HR MIN TEMP:  63; 6HR MAX TEMP:  85;

$$

ORZ014>016-041-200100-
COLUMBIA GORGE


CITY           SKY/WX    TMP DP  RH WIND       PRES   REMARKS
TROUTDALE      SUNNY     77  42  28 VRB3      29.95F
6HR MIN TEMP:  58; 6HR MAX TEMP:  77;

THE DALLES     SUNNY     80  28  15 NE7       29.96F
6HR MIN TEMP:  59; 6HR MAX TEMP:  81;

$$

ORZ029>031-041-044-049-050-061>064-502-503-505>511-200100-
EASTERN OREGON


CITY           SKY/WX    TMP DP  RH WIND       PRES   REMARKS
REDMOND        SUNNY     72  22  15 NW12      30.00F
6HR MIN TEMP:  60; 6HR MAX TEMP:  73;

BEND             N/A    N/A N/A N/A MISG        N/A
PRINEVILLE     SUNNY     70  18  13 N8        30.01F
KLAMATH FALLS  SUNNY     71  16  12 W7        30.01F
6HR MIN TEMP:  59; 6HR MAX TEMP:  74;

LAKEVIEW       SUNNY     72  18  13 NW5       30.03F
HERMISTON      SUNNY     76  29  17 NE8       29.99F
6HR MIN TEMP:  62; 6HR MAX TEMP:  77;

PENDLETON      SUNNY     71  31  22 NE9       30.01F
6HR MIN TEMP:  62; 6HR MAX TEMP:  73;

JOHN DAY       SUNNY     69  23  18 NW12      30.03F
MEACHAM        SUNNY     61  28  28 VRB6      30.07F
6HR MIN TEMP:  58; 6HR MAX TEMP:  63;

LA GRANDE      SUNNY     68  28  22 N5        30.00F
BAKER CITY     SUNNY     67  24  19 NW12      30.02F
6HR MIN TEMP:  57; 6HR MAX TEMP:  69;

BURNS          MOSUNNY   68  19  15 S12       30.02F
6HR MIN TEMP:  57; 6HR MAX TEMP:  69;

ROME             N/A     70  12  10 CALM      30.00F
6HR MIN TEMP:  60; 6HR MAX TEMP:  71;

ONTARIO        SUNNY     74  25  16 N6        29.99F
6HR MIN TEMP:  64; 6HR MAX TEMP:  74;

$$



USA.gov is the U.S. government's official web portal to all federal, state and local government web resources and services.